User: anonymous   Login
Location: Marcé
(47.5801°N, 0.3280°W)
Time: 17:50:03
(UTC+02:00)
Language:

FENGYUN 1C DEB - Orbit

View from above orbital plane
View from above orbital plane
View from above satellite
View from above satellite

Ground track
Ground track

The orbit data is extracted from the following two-line orbital elements,

1 32443U 99025DBF 22183.53020773  .00002458  00000-0  10948-2 0  9997
2 32443 102.1210  34.3098 0083491  14.8844 345.4751 14.22505298775620
Epoch (UTC): 02 July 2022 12:43:29
Eccentricity: 0.0083491
inclination: 102.1210°
perigee height: 757 km
apogee height: 877 km
right ascension of ascending node: 34.3098°
argument of perigee: 14.8844°
revolutions per day: 14.22505298
mean anomaly at epoch: 345.4751°
orbit number at epoch: 77562

The dashed part of the orbit path shows where the satellite is in the earth's shadow,  

DLR